Home   Weather   Timmins   Past weeks

Flag for Canada Past Weather in Timmins, Ontario, Canada — Yesterday and Last 2 Weeks

Now
30 °F

Light snow. Low clouds.


Feels Like: 21 °F
Forecast: 22 / 30 °F
Wind: 10 mph from Southeast

Location: Timmins

Current Time: Dec 7, 2016 at 3:51:02 am

Latest Report: Dec 7, 2016 at 3:00 am


Visibility: 1 mi

Pressure: 29.57 "Hg

Humidity: 93%

Dew Point: 28 °F

Location of TimminsLocation

Past Weather in Timmins — Graph

°F

Timmins Temperature Yesterday

Maximum temperature yesterday: 32 °F (at 10:56 am)
Minimum temperature yesterday: 27 °F (at 1:00 am)
Average temperature yesterday: 30 °F

High & Low Weather Summary for the Past Weeks

 TemperatureHumidityPressure
High37 °F (Nov 29, 8:00 pm)100% (Nov 25, 3:00 am)30.41 "Hg (Nov 25, 3:00 am)
Low18 °F (Nov 22, 8:00 pm)74% (Nov 22, 2:00 pm)29.39 "Hg (Dec 1, 5:00 am)
Average27 °F91%29.99 "Hg
* Reported Nov 22 2:00 am — Dec 7 2:00 am, Timmins, Weather by CustomWeather, © 2016

Note: Actual official high and low records may vary slightly from our data, if they occured in-between our weather recording intervals... More about our weather records

Advertising

Timmins Weather History for the Previous 24 Hours

Scroll right to see more
 ConditionsComfort  
Time TempWeatherWind HumidityBarometerVisibility
2:00 am
Wed, Dec 7
30 °FLight snow. Low clouds.10 mph93%29.59 "Hg1 mi
1:00 am30 °FLight snow. Low clouds.10 mph93%29.62 "Hg3 mi
12:00 am30 °FLight snow. Low clouds.9 mph93%29.67 "Hg12 mi
11:00 pm
Tue, Dec 6
30 °FLight snow. Low clouds.9 mph93%29.72 "Hg15 mi
10:00 pm30 °FLow clouds.10 mph93%29.72 "Hg15 mi
9:00 pm30 °FLow clouds.13 mph93%29.77 "Hg15 mi
7:00 pm30 °FMostly cloudy.12 mph93%29.80 "Hg15 mi
6:00 pm32 °FOvercast.10 mph87%29.81 "Hg15 mi
5:00 pm32 °FOvercast.9 mph87%29.86 "Hg15 mi
4:00 pm32 °FLow clouds.9 mph93%29.87 "Hg15 mi
2:00 pm32 °FLow clouds.8 mph93%29.90 "Hg15 mi
12:00 pm32 °FMostly cloudy.3 mph93%29.96 "Hg15 mi
11:00 am32 °FMostly cloudy.7 mph93%30.00 "Hg15 mi
10:56 am32 °FMostly cloudy.6 mph93%30.00 "Hg15 mi
10:00 am30 °FMostly cloudy.6 mph93%30.01 "Hg15 mi
9:00 am28 °FPartly sunny.3 mph93%30.01 "Hg15 mi
8:00 am28 °FPassing clouds.2 mph93%30.02 "Hg15 mi
7:00 am28 °FOvercast.3 mph93%30.03 "Hg15 mi
6:00 am28 °FLow clouds.3 mph93%30.03 "Hg15 mi
5:00 am28 °FLow clouds.5 mph100%30.02 "Hg15 mi
4:00 am27 °FMostly cloudy.No wind100%30.01 "Hg15 mi
3:00 am27 °FOvercast.2 mph100%30.01 "Hg15 mi
Weather by CustomWeather, © 2016

See weather overviewHow to use our weather pages